STARLINK-5058, 55456

Orbit data source: Space-Track

STARLINK-5058, 55456 is a payload satellite owned by SpaceX/Seattle (US) in LEO that was launched on Thu, 02 Feb 2023 UTC via an FALCON 9 launch vehicle from the Air Force Eastern Test Range (AFETR). Payload-class satellites include a variety of spacecraft equipped with specific instruments for various scientific and technological missions. These include communications satellites like Starlink; space stations such as the ISS; scientific satellites like the Hubble; Earth observation satellites from companies like Planet Labs, Umbra, and HawkEye 360; GPS; miniature CubeSats for education and research; and military/defense satellites.

Loading next visibility...
Identifier
55456, 2023-015H
Orbit
LEO
Country
Flag of USUS
Related business
Manufacturer
SpaceX/Seattle
Mission
Operational Commercial Communications
Bus & Motor
STARLINK, Unknown motor
Mass
305 kg wet, ~290 kg dry
Launch date (UTC)
2023-02-02 (3 years ago)
Launch vehicle
FALCON 9
Launch site
Air Force Eastern Test Range (AFETR)
Object type
Payload
Rocket body
Debris
Shape & HBR
Box + 1 Pan, 10.1 m
Radar Cross Section
13.562 m², Large (>1 m²)

Expand to show TLE details & history
Last TLE update: 7 hours ago

TLE from 7 hours ago
0 STARLINK-5058
1 55456U 23015H   26132.83828663  .00001444  00000-0  61985-4 0  9990
2 55456  43.0022 326.3701 0000960 261.2282  98.8461 15.27584145180533
Epoch: 2026-05-12T20:07Z
TLE epoch observation values (Epoch: 2026-05-12T20:07:07.964Z)
Latitude
-0.00003°
Longitude
153.97996°
Altitude
482.914 km
Speed
7.626 km/s
True Right ascension
21h 45m 28s
True Declination
0° 00' 00"
Sunlit
Object was in daylight at epoch
Visualization orbit readout
Latitude
Unknown
Longitude
Unknown
Altitude
Unknown
Speed
Unknown
Apparent Right ascension
Unknown
Apparent Declination
Unknown
Sunlit
N/A
Visualization observer readout
Local Sidereal Time
11:18:43
Azimuth
Unknown
Elevation
Unknown
Doppler factor
Unknown
Orbital elements
Apogee altitude
485.64 km
Perigee altitude
484.323 km
Semi-major axis
6,863.118 km
Eccentricity
0.0001
Inclination
43.0022°
RAAN
326.3701°
Arg. of periapsis
261.2282°
True anomaly
98.85697°
Mean anomaly
98.8461°
Eccentric anomaly
98.85153°
Mean motion
3.81734 °/min
Orbital period
94.31 mins
BSTAR
0.000061985
Loading maneuver chart data...
Computing Atmospheric mass density...
Loading historical data...
Loading historical data...
Loading historical data...
Loading historical data...
Loading historical data...
Loading historical data...
Loading historical data...

Documentation

Showing up to 5 results
|